User: anonymous   Login
Location: Peebles
(55.6412°N, 3.1714°W)
Time: 22:54:02
(UTC+00:00)
Language:

Lacrosse 5 rocket - Orbit

View from above orbital plane
View from above orbital plane
View from above satellite
View from above satellite

Ground track
Ground track

The orbit data is extracted from the following two-line orbital elements,

1 28647U 05016B   21331.49136658  .00001336  00000-0  92675-4 0  9997
2 28647  56.9969 252.0726 0124889  18.8762 341.6845 15.06738168139527
Epoch (UTC): 27 November 2021 11:47:34
Eccentricity: 0.0124889
inclination: 56.9969°
perigee height: 460 km
apogee height: 632 km
right ascension of ascending node: 252.0726°
argument of perigee: 18.8762°
revolutions per day: 15.06738168
mean anomaly at epoch: 341.6845°
orbit number at epoch: 13952

The dashed part of the orbit path shows where the satellite is in the earth's shadow,  

DLR